{"data":{"norad_id":62751,"epoch":"2026-09-20T22:17:20.376384Z","epoch_age_seconds":134322,"freshness":"FRESH","line1":"1 62751U 25014S   26263.92870806  .00011502  00000+0  42671-3 0  9993","line2":"2 62751  43.0003 135.5013 0003024 275.7916  84.2591 15.27589113 93077","mean_motion":15.27589113,"eccentricity":0.0003024,"inclination_deg":43.0003,"raan_deg":135.5013,"arg_perigee_deg":275.7916,"mean_anomaly_deg":84.2591,"bstar":0.00042671,"rev_number":9307,"period_min":94.266186355048,"perigee_km":480.94699415121,"apogee_km":485.09662299864,"semimajor_km":6861.1588085749,"source":"CELESTRAK","updated_at":"2026-09-22T09:00:49.659200Z"}}